BANGABANDHUSAT-1

Last updated on Thu Nov 21 2024 00:02:43 GMT+0000 (Coordinated Universal Time)

1 43463U 18044A 24325.56631447 -.00000361 00000+0 00000+0 0 9998 2 43463 0.0126 12.3583 0002500 234.9878 135.7009 1.00269697 23955
UTC large
Height (km)
Speed (km/s)
/
Latitude / Longitude
Inclination (degrees)
Orbital Period (minutes)
Azimuth
Elevation
Range (km)
Doppler Factor

Next 0 passes for location: London (51.5072 / 0.1276)

Sorry there are no passes over London.